| time (UTC) | temp F | wind direction | speed MPH | gust MPH | rain 1hr in | rain 24hr in | rain mn in | humidity % | barometer mb |
| 20260902233055 | 85 | 243 | 6.0 | 12.0 | 0.00 | 0.00 | 0.00 | 16 | 1017.1 |
| 20260902231603 | 86 | 277 | 6.0 | 14.0 | 0.00 | 0.00 | 0.00 | 15 | 1017.2 |
| 20260902230104 | 86 | 278 | 6.0 | 13.0 | 0.00 | 0.00 | 0.00 | 13 | 1017.1 |
| 20260902224601 | 87 | 272 | 8.0 | 14.0 | 0.00 | 0.00 | 0.00 | 14 | 1017.3 |
| 20260902223101 | 88 | 295 | 6.0 | 16.0 | 0.00 | 0.00 | 0.00 | 14 | 1017.5 |
| 20260902221601 | 87 | 246 | 7.0 | 17.0 | 0.00 | 0.00 | 0.00 | 10 | 1017.4 |
| 20260902220116 | 87 | 290 | 6.0 | 15.0 | 0.00 | 0.00 | 0.00 | 12 | 1017.3 |
| 20260902214556 | 88 | 290 | 6.0 | 16.0 | 0.00 | 0.00 | 0.00 | 12 | 1017.4 |
| 20260902213101 | 87 | 296 | 6.0 | 12.0 | 0.00 | 0.00 | 0.00 | 11 | 1017.5 |
| 20260902211603 | 87 | 301 | 7.0 | 13.0 | 0.00 | 0.00 | 0.00 | 13 | 1017.8 |
| 20260902210105 | 87 | 279 | 4.0 | 12.0 | 0.00 | 0.00 | 0.00 | 13 | 1017.7 |
| 20260902204601 | 87 | 310 | 5.0 | 14.0 | 0.00 | 0.00 | 0.00 | 15 | 1018.1 |
| 20260902203118 | 86 | 266 | 3.0 | 15.0 | 0.00 | 0.00 | 0.00 | 14 | 1018.0 |
| 20260902201604 | 86 | 279 | 6.0 | 14.0 | 0.00 | 0.00 | 0.00 | 14 | 1018.2 |
| 20260902200100 | 86 | 278 | 4.0 | 14.0 | 0.00 | 0.00 | 0.00 | 13 | 1018.3 |
| 20260902194602 | 85 | 270 | 4.0 | 13.0 | 0.00 | 0.00 | 0.00 | 14 | 1018.5 |
| 20260902193103 | 85 | 270 | 4.0 | 10.0 | 0.00 | 0.00 | 0.00 | 15 | 1018.7 |
| 20260902191606 | 85 | 251 | 6.0 | 11.0 | 0.00 | 0.00 | 0.00 | 15 | 1018.9 |
| 20260902184559 | 84 | 258 | 5.0 | 12.0 | 0.00 | 0.00 | 0.00 | 15 | 1018.9 |
| 20260902183104 | 83 | 223 | 3.0 | 10.0 | 0.00 | 0.00 | 0.00 | 17 | 1019.1 |
| 20260902181558 | 83 | 267 | 6.0 | 16.0 | 0.00 | 0.00 | 0.00 | 14 | 1019.1 |
| 20260902174605 | 83 | 249 | 4.0 | 10.0 | 0.00 | 0.00 | 0.00 | 15 | 1019.2 |
| 20260902173059 | 83 | 295 | 4.0 | 11.0 | 0.00 | 0.00 | 0.00 | 15 | 1019.3 |
| 20260902171603 | 81 | 240 | 4.0 | 13.0 | 0.00 | 0.00 | 0.00 | 16 | 1019.2 |
| 20260902170103 | 80 | 256 | 5.0 | 10.0 | 0.00 | 0.00 | 0.00 | 18 | 1019.0 |
| 20260902164607 | 79 | 235 | 6.0 | 10.0 | 0.00 | 0.00 | 0.00 | 17 | 1018.9 |
| 20260902163104 | 80 | 234 | 4.0 | 8.0 | 0.00 | 0.00 | 0.00 | 17 | 1018.9 |
| 20260902161606 | 81 | 239 | 3.0 | 8.0 | 0.00 | 0.00 | 0.00 | 20 | 1019.0 |
| 20260902160121 | 78 | 228 | 1.0 | 5.0 | 0.00 | 0.00 | 0.00 | 24 | 1018.9 |
| 20260902154605 | 73 | 0 | 0.0 | 0.0 | 0.00 | 0.00 | 0.00 | 29 | 1018.9 |
| 20260902153111 | 66 | 0 | 0.0 | 0.0 | 0.00 | 0.00 | 0.00 | 35 | 1019.0 |
| 20260902151614 | 63 | 0 | 0.0 | 0.0 | 0.00 | 0.00 | 0.00 | 41 | 1018.9 |
| 20260902150104 | 59 | 0 | 0.0 | 0.0 | 0.00 | 0.00 | 0.00 | 45 | 1019.1 |
| 20260902144600 | 54 | 0 | 0.0 | 2.0 | 0.00 | 0.00 | 0.00 | 53 | 1019.1 |
| 20260902143109 | 50 | 85 | 1.0 | 4.0 | 0.00 | 0.00 | 0.00 | 59 | 1019.1 |
| 20260902141600 | 44 | 122 | 1.0 | 4.0 | 0.00 | 0.00 | 0.00 | 66 | 1019.1 |
| 20260902140101 | 42 | 78 | 0.0 | 1.0 | 0.00 | 0.00 | 0.00 | 64 | 1018.9 |
| 20260902134611 | 41 | 76 | 0.0 | 3.0 | 0.00 | 0.00 | 0.00 | 65 | 1018.8 |
| 20260902133108 | 42 | 0 | 0.0 | 1.0 | 0.00 | 0.00 | 0.00 | 64 | 1018.5 |
| 20260902131607 | 42 | 76 | 2.0 | 5.0 | 0.00 | 0.00 | 0.00 | 66 | 1018.4 |
| 20260902130104 | 42 | 0 | 0.0 | 3.0 | 0.00 | 0.00 | 0.00 | 63 | 1018.5 |
| 20260902124558 | 41 | 76 | 1.0 | 5.0 | 0.00 | 0.00 | 0.00 | 66 | 1018.4 |
| 20260902123100 | 41 | 82 | 0.0 | 3.0 | 0.00 | 0.00 | 0.00 | 64 | 1018.4 |
| 20260902121600 | 42 | 0 | 0.0 | 2.0 | 0.00 | 0.00 | 0.00 | 64 | 1018.4 |
| 20260902120104 | 43 | 0 | 0.0 | 3.0 | 0.00 | 0.00 | 0.00 | 66 | 1018.4 |
| 20260902114603 | 43 | 0 | 0.0 | 1.0 | 0.00 | 0.00 | 0.00 | 65 | 1018.4 |
| 20260902113106 | 43 | 0 | 0.0 | 3.0 | 0.00 | 0.00 | 0.00 | 69 | 1018.3 |
| 20260902111600 | 43 | 0 | 0.0 | 2.0 | 0.00 | 0.00 | 0.00 | 68 | 1018.4 |
| 20260902104617 | 44 | 0 | 0.0 | 5.0 | 0.00 | 0.00 | 0.00 | 69 | 1018.5 |
| 20260902103101 | 45 | 0 | 0.0 | 3.0 | 0.00 | 0.00 | 0.00 | 72 | 1018.6 |
| 20260902101602 | 44 | 79 | 0.0 | 1.0 | 0.00 | 0.00 | 0.00 | 71 | 1018.6 |
| 20260902100128 | 45 | 0 | 0.0 | 0.0 | 0.00 | 0.00 | 0.00 | 68 | 1018.6 |
| 20260902094606 | 47 | 0 | 0.0 | 1.0 | 0.00 | 0.00 | 0.00 | 71 | 1018.6 |
| 20260902093120 | 47 | 69 | 2.0 | 4.0 | 0.00 | 0.00 | 0.00 | 75 | 1018.6 |
| 20260902091609 | 46 | 0 | 0.0 | 0.0 | 0.00 | 0.00 | 0.00 | 72 | 1018.8 |
| 20260902090106 | 47 | 0 | 0.0 | 0.0 | 0.00 | 0.00 | 0.00 | 69 | 1018.9 |
| 20260902084607 | 48 | 0 | 0.0 | 0.0 | 0.00 | 0.00 | 0.00 | 70 | 1018.9 |
| 20260902083109 | 49 | 0 | 0.0 | 0.0 | 0.00 | 0.00 | 0.00 | 68 | 1018.9 |
| 20260902081615 | 50 | 0 | 0.0 | 2.0 | 0.00 | 0.00 | 0.00 | 68 | 1018.8 |
| 20260902080107 | 50 | 81 | 0.0 | 4.0 | 0.00 | 0.00 | 0.00 | 70 | 1019.0 |
| 20260902074600 | 51 | 0 | 0.0 | 0.0 | 0.00 | 0.00 | 0.00 | 69 | 1018.9 |
| 20260902073101 | 51 | 0 | 0.0 | 0.0 | 0.00 | 0.00 | 0.00 | 69 | 1018.9 |
| 20260902071624 | 53 | 0 | 0.0 | 2.0 | 0.00 | 0.00 | 0.00 | 66 | 1018.8 |
| 20260902070104 | 54 | 0 | 0.0 | 4.0 | 0.00 | 0.00 | 0.00 | 66 | 1018.8 |
| 20260902064608 | 55 | 0 | 0.0 | 0.0 | 0.00 | 0.00 | 0.00 | 65 | 1018.8 |
| 20260902063117 | 56 | 0 | 0.0 | 1.0 | 0.00 | 0.00 | 0.00 | 66 | 1018.8 |
| 20260902061602 | 56 | 0 | 0.0 | 0.0 | 0.00 | 0.00 | 0.00 | 65 | 1018.7 |
| 20260902060133 | 57 | 0 | 0.0 | 1.0 | 0.00 | 0.00 | 0.00 | 63 | 1018.5 |
| 20260902054557 | 58 | 355 | 0.0 | 2.0 | 0.00 | 0.00 | 0.00 | 62 | 1018.5 |
| 20260902053102 | 58 | 0 | 0.0 | 0.0 | 0.00 | 0.00 | 0.00 | 62 | 1018.6 |
| 20260902051609 | 59 | 0 | 0.0 | 0.0 | 0.00 | 0.00 | 0.00 | 61 | 1018.5 |
| 20260902050108 | 60 | 0 | 0.0 | 0.0 | 0.00 | 0.00 | 0.00 | 57 | 1018.7 |
| 20260902044601 | 62 | 0 | 0.0 | 0.0 | 0.00 | 0.00 | 0.00 | 53 | 1018.5 |
| 20260902043110 | 65 | 0 | 0.0 | 0.0 | 0.00 | 0.00 | 0.00 | 53 | 1018.5 |
| 20260902041600 | 66 | 0 | 0.0 | 0.0 | 0.00 | 0.00 | 0.00 | 53 | 1018.4 |
| 20260902034601 | 68 | 0 | 0.0 | 1.0 | 0.00 | 0.00 | 0.00 | 51 | 1018.0 |
| 20260902033109 | 69 | 270 | 0.0 | 2.0 | 0.00 | 0.00 | 0.00 | 51 | 1017.7 |
| 20260902031601 | 71 | 0 | 0.0 | 1.0 | 0.00 | 0.00 | 0.00 | 47 | 1017.5 |
| 20260902024618 | 73 | 264 | 2.0 | 6.0 | 0.00 | 0.00 | 0.00 | 44 | 1016.8 |
| 20260902023102 | 74 | 275 | 1.0 | 6.0 | 0.00 | 0.00 | 0.00 | 38 | 1016.9 |
| 20260902021604 | 76 | 293 | 1.0 | 8.0 | 0.00 | 0.00 | 0.00 | 38 | 1016.8 |
| 20260902020139 | 77 | 273 | 2.0 | 8.0 | 0.00 | 0.00 | 0.00 | 37 | 1016.9 |
| 20260902014603 | 80 | 315 | 3.0 | 9.0 | 0.00 | 0.00 | 0.00 | 36 | 1016.7 |
| 20260902013111 | 82 | 284 | 4.0 | 9.0 | 0.00 | 0.00 | 0.00 | 34 | 1016.8 |
| 20260902011602 | 84 | 323 | 2.0 | 9.0 | 0.00 | 0.00 | 0.00 | 34 | 1016.8 |
| 20260902010100 | 86 | 275 | 1.0 | 8.0 | 0.00 | 0.00 | 0.00 | 32 | 1016.6 |
| 20260902004559 | 86 | 296 | 3.0 | 10.0 | 0.00 | 0.00 | 0.00 | 32 | 1016.6 |
| 20260902003105 | 86 | 71 | 2.0 | 9.0 | 0.00 | 0.00 | 0.00 | 33 | 1016.6 |
| 20260902001601 | 87 | 255 | 5.0 | 12.0 | 0.00 | 0.00 | 0.00 | 31 | 1016.7 |
| 20260902000059 | 88 | 234 | 5.0 | 12.0 | 0.00 | 0.00 | 0.00 | 30 | 1016.7 |
| 20260901234613 | 88 | 265 | 3.0 | 12.0 | 0.00 | 0.00 | 0.00 | 31 | 1016.6 |